Location: Unspecified
(51.5000°N, 7.8880°E)
Time: 14:40:45
(UTC+00:00)

Daily predictions for brighter satellites

Satellite Brightness Start Highest point End
(mag) Time Altitude Azimuth Time Altitude Azimuth Time Altitude Azimuth
Okean-O 3.0 20:26:50 10° S 20:31:09 63° WSW 20:35:30 10° NNW
Meteor 2-20 Rocket 4.4 20:25:49 10° S 20:31:35 72° E 20:37:35 10° NNE
CZ-4B R/B 3.0 20:28:27 10° SSE 20:32:13 58° ENE 20:36:08 10° N
CZ-4B R/B 3.8 20:27:48 10° SE 20:32:44 57° ENE 20:37:51 10° N
Cosmos 1805 Rocket 4.3 20:33:45 10° N 20:37:48 37° ENE 20:41:50 10° SE
BlueWalker 3 4.1 20:36:16 10° WSW 20:38:02 13° SW 20:39:49 10° SSW
Meteor 1-27 Rocket 4.2 20:35:42 10° SSW 20:41:15 65° WNW 20:46:46 10° N
Cosmos 1408 Rocket 4.2 20:38:32 10° N 20:42:44 42° ENE 20:46:55 10° SE
Cosmos 1842 Rocket 3.6 20:39:04 10° S 20:43:30 74° E 20:47:56 10° NNE
SL-08 R/B 3.8 20:39:05 10° N 20:43:39 61° WNW 20:48:09 10° SSW
Cosmos 2298 Rocket 4.1 20:38:28 10° NNW 20:43:49 90° WSW 20:49:06 10° SSE
ATLAS 2AS CENTAUR R/B 3.9 20:37:55 10° NW 20:43:52 34° WSW 20:49:51 10° S
Cosmos 1461 2.5 20:40:37 10° NW 20:44:10 74° NE 20:47:38 10° SE
CZ-4C R/B 3.4 20:38:19 10° NW 20:45:03 57° SW 20:53:24 10° SSE
Cosmos 724 4.4 20:39:41 10° NW 20:45:31 71° NE 20:51:18 10° SE
NOSS 2-2 (E) 2.8 20:42:59 10° SW 20:46:16 80° NW 20:49:16 10° NE
Cosmos 2150 Rocket 4.2 20:40:54 10° NNW 20:46:22 81° WSW 20:51:43 10° SSE
Cosmos 1758 3.1 20:51:33 10° N 20:55:15 81° E 20:58:56 10° SSE
Helios 1B rocket 4.5 20:57:14 10° E 20:58:38 12° ENE 21:00:01 10° NNE
Cosmos 2227 4.2 20:54:03 10° SSW 20:59:47 77° ESE 21:05:34 10° NNE
Cosmos 2082 4.4 20:54:19 10° SW 20:59:51 58° NW 21:05:25 10° NNE
USA 245 3.6 20:59:23 10° S 21:03:10 53° WSW 21:06:18 10° NNW
CZ-2C R/B 2.2 21:02:29 14° SSE 21:04:40 53° ENE 21:07:23 10° N
Cosmos 2263 Rocket 4.3 21:01:49 10° WSW 21:06:43 31° NW 21:11:38 10° NNE
Iridium 4 Rocket 4.2 21:02:29 11° SSE 21:07:21 41° E 21:12:06 10° NNE
Cosmos 1151 Rocket 3.2 21:05:19 10° S 21:09:32 55° E 21:13:47 10° NNE
Cosmos 2208 Rocket 4.1 21:05:49 10° SSW 21:11:01 80° WNW 21:16:14 10° NNE
SPOT 3 Rocket 4.1 21:06:57 10° S 21:11:58 55° W 21:17:03 10° NNW
Okean O Rocket 3.4 21:08:25 10° SSW 21:12:06 27° W 21:15:49 10° NW
Cosmos 1603 4.1 21:06:42 10° NW 21:12:22 62° WSW 21:17:39 12° SSE
IRS-1C Rocket 4.4 21:11:10 10° S 21:16:24 66° WSW 21:21:39 10° NNW
Cosmos 1340 Rocket 3.0 21:12:55 10° NNW 21:16:40 61° W 21:20:08 11° S
CENTAUR R/B 3.3 21:13:04 10° WSW 21:18:53 60° NW 21:26:19 10° NE
Cosmos 1745 Rocket 4.4 21:14:39 10° N 21:20:45 52° ENE 21:26:05 14° SSE
Cosmos 1633 Rocket 4.4 21:17:17 10° N 21:21:03 27° ENE 21:24:24 12° SE
Cosmos 1844 Rocket 2.9 21:20:40 10° SW 21:26:14 73° WNW 21:31:49 10° NNE
Ariane Rocket 3.6 21:23:22 10° S 21:28:18 51° W 21:33:16 10° NNW
SL-14 R/B 4.0 21:24:42 10° SSW 21:28:19 50° WNW 21:31:58 10° N
Cosmos 1833 Rocket 3.0 21:29:19 10° NNW 21:34:57 62° NE 21:39:47 14° SE
GEOS 3 Rocket 4.0 21:30:05 10° ESE 21:35:23 64° NE 21:40:44 10° NW
Cosmos 2082 Rocket 4.2 21:33:13 10° NNW 21:37:39 23° NE 21:42:02 10° E
Cosmos 1500 Rocket 3.9 21:34:28 10° NNW 21:38:46 62° W 21:42:24 14° S
Cosmos 2285 Rocket 4.2 21:33:40 10° NNW 21:39:58 68° WSW 21:45:19 15° S
GP-B 3.1 21:35:50 10° N 21:40:13 83° W 21:44:01 14° S
USA 215 3.4 21:34:58 13° SE 21:40:47 63° SW 21:47:18 10° WNW
ARIANE 5 R/B 4.1 21:38:47 11° ESE 21:42:18 28° ENE 21:46:06 10° N
NOSS 3-2 (A) 3.2 21:37:50 10° SW 21:42:58 85° NW 21:49:14 10° NE
Cosmos 1607 4.2 21:36:44 10° NW 21:43:03 65° SW 21:48:10 16° SSE
Cosmos 1844 4.3 21:38:33 10° SW 21:44:17 62° NW 21:50:04 10° NNE
NOSS 2-3 (E) 3.8 21:42:03 16° S 21:44:30 34° SE 21:47:57 10° ENE
Cosmos 2278 Rocket 4.1 21:43:06 10° ESE 21:45:29 13° E 21:48:01 10° ENE
ALOS 2 3.9 21:51:04 13° ESE 21:54:22 31° ENE 21:58:13 10° N
Cosmos 1953 2.0 21:50:53 10° N 21:54:28 80° E 21:56:38 22° SSE
Cosmos 1703 2.7 21:54:42 18° SSW 21:56:54 79° WNW 22:00:05 10° N
BREEZE-M DEB (TANK) 3.9 21:46:57 10° W 21:59:21 82° N 22:02:45 10° E
SL-24 R/B - RUBIN 2 4.4 21:55:01 10° WSW 21:59:23 53° NW 22:03:40 10° NE
Helios 1A 3.0 21:55:40 10° NNE 21:59:34 55° ESE 22:02:01 21° S
Cosmos 2344 3.9 22:00:13 11° S 22:07:07 43° ESE 22:13:48 10° NE
Cosmos 1400 Rocket 4.3 22:09:03 10° N 22:12:08 24° ENE 22:14:25 14° ESE
Cosmos 1328 Rocket 3.6 22:11:41 21° S 22:14:30 69° E 22:18:51 10° NNE
Spot 4 4.2 22:15:14 20° SE 22:18:31 60° ENE 22:23:18 10° N
Cosmos 1666 Rocket 3.6 22:15:41 10° NNW 22:20:03 74° W 22:22:44 22° S
Cosmos 1680 Rocket 4.4 22:19:58 20° SSE 22:22:36 32° ESE 22:27:10 10° NE
NOSS 3-2 (C) 3.1 22:18:24 10° SW 22:23:30 80° SE 22:29:43 10° NE
Okean 2 3.9 22:21:51 24° SSE 22:23:37 40° E 22:27:15 10° NNE
USA 59 Rocket 1.6 22:25:36 12° ESE 22:25:36 12° ESE 22:26:18 10° E
Cosmos 2056 Rocket 3.9 22:21:36 10° NNW 22:26:40 57° ENE 22:30:25 18° SE
S3M 4.0 22:23:38 16° SSW 22:28:37 84° W 22:34:48 10° N
Meteor 1-21 4.3 22:26:15 20° S 22:30:08 70° E 22:35:46 10° NNE
Helios 1B rocket 2.0 22:29:22 28° S 22:31:02 75° WSW 22:34:31 10° NNW
NOSS 2-3 (C) 2.9 22:32:32 23° SSW 22:34:29 62° SE 22:38:06 10° NE
USA 238 DEB 4.3 22:33:09 21° SSE 22:36:21 34° ESE 22:42:12 10° NE
USA 238 4.3 22:33:24 21° SSE 22:36:34 33° ESE 22:42:24 10° NE
Cosmos 1812 3.8 22:37:09 10° NE 22:37:32 11° ENE 22:37:32 11° ENE
Cosmos 1943 Rocket 2.8 22:36:13 22° SSE 22:39:22 41° ESE 22:44:38 10° NE
Cosmos 1709 Rocket 4.3 22:33:45 10° NNW 22:40:00 63° W 22:44:39 19° S
Cosmos 1515 Rocket 3.8 22:41:11 26° SSE 22:43:30 57° E 22:47:46 10° NNE
Timation 1 Rocket 4.5 22:42:11 10° NW 22:48:06 64° WSW 22:51:55 22° S
Cosmos 1420 Rocket 4.2 22:42:57 10° NNW 22:48:06 60° WSW 22:51:10 24° S
CZ-2C R/B 3.2 22:51:30 17° SE 22:55:18 49° ENE 23:00:19 10° N
Cosmos 1633 Rocket 4.0 22:54:44 10° NNW 22:58:47 37° W 23:01:19 20° SSW
Cosmos 923 Rocket 4.0 22:58:23 21° SSW 23:01:59 84° ESE 23:07:14 10° NNE
Cosmos 1441 Rocket 3.6 23:06:02 30° SE 23:06:58 37° E 23:10:01 10° NNE
NOSS 2-3 (D) 4.0 23:03:43 10° WSW 23:07:19 52° NW 23:11:14 10° NE
Cosmos 2112 Rocket 4.1 23:05:48 25° S 23:08:47 61° ESE 23:13:53 10° NNE
USA 81 4.0 23:04:03 10° N 23:09:20 81° W 23:12:32 24° S
GEOS 3 Rocket 4.5 23:11:00 23° S 23:13:35 35° WSW 23:18:31 10° NW
Okean 3 3.3 23:13:31 30° S 23:15:24 77° E 23:19:25 10° NNE
Lacrosse 5 rocket 0.9 23:14:45 30° SSW 23:16:13 55° SE 23:19:39 10° ENE
Cosmos 1371 Rocket 4.1 23:12:15 10° NNW 23:17:29 66° WSW 23:20:30 25° S
ARIANE 5 R/B 3.4 23:16:09 23° SSW 23:18:27 41° W 23:22:41 10° NNW
Cosmos 1833 Rocket 4.0 23:13:47 10° NW 23:18:29 27° WSW 23:21:26 18° SSW
Cosmos 2082 Rocket 2.2 23:16:54 10° NNW 23:22:36 82° ENE 23:26:49 18° SSE
Cosmos 1452 Rocket 4.2 23:19:31 10° NNW 23:24:40 51° ENE 23:29:19 12° SE
Cosmos 1110 Rocket 4.1 23:20:55 10° NNW 23:26:09 74° ENE 23:29:50 19° SSE
Cosmos 2278 Rocket 2.2 23:24:53 23° SSW 23:28:31 71° ESE 23:34:10 10° NNE
ALOS 2 3.5 23:28:28 22° SSW 23:30:38 36° W 23:34:43 10° NNW
NOSS 2-1 (E) 3.9 23:30:44 29° SSE 23:31:26 32° SE 23:34:23 10° ENE
ACS3 Solar Sail 2.3 23:26:58 10° NNE 23:32:26 44° E 23:36:05 20° SSE
Cosmos 1933 Rocket 4.0 23:32:50 10° NNW 23:37:00 49° W 23:39:07 26° SSW
COSMOS 2406 3.8 23:32:15 10° NNW 23:37:53 57° NE 23:43:28 10° SE
Cosmos 2074 Rocket 4.1 23:34:40 10° NNW 23:40:50 65° W 23:44:51 22° S
IRIDIUM 103 4.5 23:42:08 10° N 23:47:23 69° E 23:50:47 22° SSE
Cosmos 1400 Rocket 3.8 23:44:11 10° NNW 23:47:29 31° W 23:48:52 23° SW
Lacrosse 4 Rocket 4.2 23:48:17 10° NNW 23:51:18 19° NNE 23:54:18 10° ENE
CZ-2C R/B 3.3 23:46:50 10° N 23:52:27 71° WNW 23:56:05 21° SSW
